This is the latest recevied weather packets stored in our database for station/object TA2LKM-11. If no packets are shown the sender has not sent any weather packets the latest 10 day(s).
| Time | Temp. | Humidity | Pressure | Rain* | Wind** | Luminosity | Snow |
|---|---|---|---|---|---|---|---|
| 1788300678 | 23.33° C | 44% | 1014.6 hPa | - | - | - | - |
| 1788299777 | 23.89° C | 43% | 1014.6 hPa | - | - | - | - |
| 1788298875 | 23.89° C | 43% | 1014.9 hPa | - | - | - | - |
| 1788297974 | 23.89° C | 44% | 1014.8 hPa | - | - | - | - |
| 1788297885 | 23.89° C | 44% | 1014.8 hPa | - | - | - | - |
| 1788296985 | 23.89° C | 43% | 1014.9 hPa | - | - | - | - |
| 1788296084 | 24.44° C | 43% | 1014.8 hPa | - | - | - | - |
| 1788295183 | 25.56° C | 40% | 1014.7 hPa | - | - | - | - |
| 1788294282 | 25.56° C | 40% | 1014.6 hPa | - | - | - | - |
| 1788293862 | 25.56° C | 41% | 1014.6 hPa | - | - | - | - |
| 1788292961 | 26.11° C | 40% | 1014.5 hPa | - | - | - | - |
| 1788292592 | 26.67° C | 39% | 1014.4 hPa | - | - | - | - |
| 1788291692 | 26.67° C | 39% | 1014.4 hPa | - | - | - | - |
| 1788290791 | 27.22° C | 37% | 1014.5 hPa | - | - | - | - |
| 1788289890 | 27.22° C | 37% | 1014.6 hPa | - | - | - | - |
| 1788288989 | 27.22° C | 37% | 1014.5 hPa | - | - | - | - |
| 1788288000 | 27.22° C | 37% | 1014.3 hPa | - | - | - | - |
| 1788287910 | 27.22° C | 37% | 1014.3 hPa | - | - | - | - |
| 1788287010 | 27.22° C | 39% | 1014.2 hPa | - | - | - | - |
| 1788286109 | 27.22° C | 38% | 1014.1 hPa | - | - | - | - |
| 1788285208 | 27.78° C | 36% | 1013.7 hPa | - | - | - | - |
| 1788284308 | 27.78° C | 38% | 1013.5 hPa | - | - | - | - |
| 1788283407 | 27.78° C | 45% | 1013.3 hPa | - | - | - | - |
| 1788282506 | 28.33° C | 47% | 1013.3 hPa | - | - | - | - |
| 1788281604 | 28.89° C | 46% | 1013 hPa | - | - | - | - |
* Rain since midnight (hover to see other rain measurements)
** Current wind speed in m/s (hover to see current wind gust speed)